Simultaneous Nadir Overpasses (SNOs) Predictions

Prediction of SNOs between GOES-17 and METOP-B Satellite Orbit:

Table of predicted SNOs for the next 14.0 days since TLE Epoch: 4/27/2024
Index Date Time (GOES-17) GOES-17 Lat,Lon METOP-B Lat,Lon Distance(km) Time Diff (sec)
1 04/27/2024 16:07:44 -0.01,-104.71 -0.87,-100.85 439.53 80
2 04/29/2024 04:26:42 0.00,-104.69 -0.16,-105.45 86.24 80
3 04/30/2024 04:03:20 0.00,-104.69 0.92,-100.45 482.52 80
4 05/01/2024 16:22:10 -0.00,-104.70 0.09,-105.01 36.77 80
5 05/04/2024 04:20:27 0.00,-104.68 -0.01,-104.61 7.57 80
6 05/06/2024 16:21:14 0.00,-104.69 -0.11,-104.18 57.60 80
7 05/08/2024 04:40:12 -0.01,-104.68 -0.93,-108.78 467.16 80
8 05/09/2024 04:16:50 -0.01,-104.68 0.18,-103.78 102.00 80
9 05/10/2024 16:35:38 0.01,-104.68 0.83,-108.34 417.05 80
